User: anonymous   Login
Location: Unspecified
(0.0000°N, 0.0000°E)
Time: 05:16:00
(UTC+02:00)
Language:

Gbstr 26 Del rocket - Orbit

View from above orbital plane
View from above orbital plane
View from above satellite
View from above satellite

Ground track
Ground track

The orbit data is extracted from the following two-line orbital elements,

1 25876U 99041E   16237.92203165 -.00000024  00000-0  35331-4 0  9994
2 25876  51.7681  45.5554 0531893 244.6755 109.8184 14.03854617872993
Epoch (UTC): 24 August 2016 22:07:43
Eccentricity: 0.0531893
inclination: 51.7681°
perigee height: 494 km
apogee height: 1266 km
right ascension of ascending node: 45.5554°
argument of perigee: 244.6755°
revolutions per day: 14.03854617
mean anomaly at epoch: 109.8184°
orbit number at epoch: 87299

The dashed part of the orbit path shows where the satellite is in the earth's shadow,  

DLR